Regional Weather Roundup
Issued by NWS

Home | Current Version | Previous Version | Text Only | Print | Product List | Glossary Off
Versions: 1 2 3 4 5 6 7 8 9 10 11 12 13 14 15 16 17 18 19 20 21 22 23 24 25 26 27 28 29 30 31 32 33 34 35 36 37 38 39 40 41 42 43 44 45 46 47 48 49 50

000
ASUS43 KMPX 212310
RWRMN
WEATHER ROUNDUP FOR MINNESOTA
NATIONAL WEATHER SERVICE TWIN CITIES/CHANHASSEN MN
600 PM CDT MON AUG 21 2017


NOTE: "FAIR" INDICATES FEW OR NO CLOUDS BELOW 12,000 FEET WITH NO
SIGNIFICANT WEATHER AND/OR OBSTRUCTIONS TO VISIBILITY. N/A MEANS
CURRENT SKY AND/OR WEATHER CONDITIONS ARE NOT AVAILABLE.

MNZ060>063-068>070-220000-
   Twin Cities Metro

CITY           SKY/WX    TMP DP  RH WIND       PRES   REMARKS
TWIN CITIES    CLOUDY    69  65  86 S6        29.87F
ST PAUL        CLOUDY    69  66  90 S3        29.88F
CRYSTAL        CLOUDY    70  63  78 SE9       29.84F
BLAINE         CLOUDY    72  66  83 S9        29.85F
LAKEVILLE      DRIZZLE   66  66 100 S13G22    29.84F
EDEN PRAIRIE   CLOUDY    69  66  90 S12       29.83F
SOUTH ST PAUL  CLOUDY    68  67  98 SW3       29.88F
LAKE ELMO      FAIR      70  64  83 SW9       29.90F
$$
MNZ001>005-007-008-013>017-022>024-027-028-220000-
   Northwest Minnesota

CITY           SKY/WX    TMP DP  RH WIND       PRES   REMARKS
BEMIDJI        CLOUDY    68  52  56 CALM      29.90R
HALLOCK        SUNNY     72  55  56 NW6       29.88S
ROSEAU         CLOUDY    66  57  72 CALM      29.89S
WARROAD        CLOUDY    64  59  82 VRB7      29.90S
THIEF RVR FALL CLOUDY    70  54  56 W9        29.90R
CROOKSTON      PTSUNNY   72  54  53 N9        29.89S
FOSSTON        PTSUNNY   68  59  73 N3        29.89R
DETROIT LAKES  CLOUDY    70  61  73 W6        29.89R
MOORHEAD       MOSUNNY   73  61  64 NW7       29.88R
PARK RAPIDS    CLOUDY    71  59  65 SE5       29.88S
MAHNOMEN       CLOUDY    72  59  64 CALM      29.87S
$$
MNZ006-009>011-018-025>026-220000-
   North Central Minnesota

CITY           SKY/WX    TMP DP  RH WIND       PRES   REMARKS
BAUDETTE       CLOUDY    64  57  78 S3        29.88S
FLAG ISLAND    CLOUDY    64  55  72 NE3       29.89S
WASKISH        LGT RAIN  59  57  94 NE3       29.90S
BIG FORK       LGT RAIN  64  57  77 E3        29.90F
LONGVILLE      CLOUDY    70  61  73 CALM      29.88F
GRAND RAPIDS   CLOUDY    65  59  81 CALM      29.90F
CRANE LAKE     CLOUDY    59  57  94 CALM      29.95S
ORR            CLOUDY    61  57  88 CALM      29.89F
COOK           CLOUDY    63  57  82 CALM      29.92S
WALKER         FAIR      67  56  67 CALM      29.88F
$$
MNZ012-019>021-037-220000-
   Northeast Minnesota

CITY           SKY/WX    TMP DP  RH WIND       PRES   REMARKS
DULUTH         CLOUDY    66  58  75 SE8       29.90S
ELY            CLOUDY    63  57  82 NE3       29.91F
HIBBING        LGT RAIN  61  59  93 N3        29.91S
EVELETH        LGT RAIN  63  58  85 CALM      29.94R
DULUTH HARBOR  CLOUDY    66  63  88 N5        29.88S
TWO HARBORS    CLOUDY    66  61  82 E3        29.88S
SILVER BAY     CLOUDY    64  57  77 CALM      29.88S
GRAND MARAIS     N/A     66  57  72 NE3       29.88F
G MARAIS ARPRT CLOUDY    61  52  72 N3        29.93F
$$
MNZ029>031-032-039>041-046>048-054>057-064-220000-
   West Central Minnesota

CITY           SKY/WX    TMP DP  RH WIND       PRES   REMARKS
FERGUS FALLS   CLOUDY    70  61  73 NW8       29.88R
WHEATON        CLOUDY    73  61  64 W10       29.91R
MORRIS         MOSUNNY   75  63  64 NW10      29.89R
ALEXANDRIA     CLOUDY    68  63  84 SW6       29.91R
ELBOW LAKE     PTSUNNY   69  63  79 NW7       29.89S HAZE
WADENA         CLOUDY    66  63  88 S6        29.87S
GLENWOOD       CLOUDY    70  63  78 S7        29.89F
APPLETON       CLOUDY    72  63  73 W6        29.89S
BENSON         CLOUDY    70  63  78 CALM      29.91S
ORTONVILLE     CLOUDY    73  61  64 MISG      29.90S
MADISON        CLOUDY    73  64  73 NW6       29.91R
WILLMAR        PTSUNNY   70  66  88 CALM      29.91F
$$
MNZ033>034-036-042>043-049>051-058-059-220000-
   Central Minnesota

CITY           SKY/WX    TMP DP  RH WIND       PRES   REMARKS
ST CLOUD       CLOUDY    69  66  90 CALM      29.89S
SAUK CENTRE    FAIR      69  64  83 S7        29.90S
PAYNESVILLE    PTSUNNY   69  66  90 SW5       29.91S
AITKIN         CLOUDY    70  63  78 S3        29.87S
PINE RIVER     CLOUDY    68  59  73 CALM      29.91F
BRAINERD       CLOUDY    70  63  78 SW9       29.88S
STAPLES        CLOUDY    70  63  78 S7        29.87F
LONG PRAIRIE   FAIR      68  63  83 SE8       29.89S
LITTLE FALLS   CLOUDY    70  61  73 SW6       29.89S
LITCHFIELD     CLOUDY    70  68  94 SW5       29.90F
BUFFALO        CLOUDY    69  64  83 S6        29.90S
MAPLE LAKE     PTSUNNY   70  67  89 SW5       29.90S
HUTCHINSON     PTSUNNY   69  66  90 SW7       29.92R
$$
MNZ037-044-045-052-053-220000-
   East Central Minnesota

CITY           SKY/WX    TMP DP  RH WIND       PRES   REMARKS
PRINCETON      CLOUDY    72  66  83 CALM      29.89F
MORA           CLOUDY    70  64  83 S3        29.90F
CAMBRIDGE      CLOUDY    73  66  78 SW5       29.88F
RUSH CITY      CLOUDY    71  66  85 S5        29.89F
MOOSE LAKE     CLOUDY    70  63  78 CALM      29.86F
HINCKLEY       CLOUDY    72  66  83 S3        29.89S
CLOQUET        CLOUDY    66  57  72 CALM      29.90R
MCGREGOR       CLOUDY    70  63  78 S3        29.88F
$$
MNZ071>073-080-081-089-090-097-098-220000-
   Southwest Minnesota

CITY           SKY/WX    TMP DP  RH WIND       PRES   REMARKS
MONTEVIDEO     CLOUDY    75  73  94 CALM      29.90S
GRANITE FALLS  PTSUNNY   72  67  83 W3        29.91F
CANBY          CLOUDY    74  66  75 CALM      29.92F
MARSHALL       PTSUNNY   70  64  81 W5        29.93R
REDWOOD FALLS  CLOUDY    70  66  87 SW6       29.90S
OLIVIA         CLOUDY    70  64  83 SW7       29.89F
PIPESTONE      CLOUDY    70  66  88 SW5       29.98R
WINDOM         PTSUNNY   68  63  83 W13       29.95R
WORTHINGTON    CLOUDY    66  63  90 SW8G20    29.99R
JACKSON        CLOUDY    64  64 100 S12       29.91R
TRACY          PTSUNNY   72  67  86 W3        29.94S
SLAYTON        CLOUDY    69  61  77 CALM      29.96R
$$
MNZ065>067-074>077-082>085-091>093-220000-
   South Central Minnesota

CITY           SKY/WX    TMP DP  RH WIND       PRES   REMARKS
MANKATO        LGT RAIN  67  65  93 SE23G33   29.79F
NEW ULM        CLOUDY    66  63  88 W18       29.92R
ST JAMES       CLOUDY    66  63  88 S12G18    29.88R
FAIRMONT       CLOUDY    65  62  90 SE16G24   29.87F
GLENCOE        CLOUDY    69  69  99 SW7       29.89R
FARIBAULT      LGT RAIN  68  66  94 S15G24    29.92F
OWATONNA       RAIN      66  64  94 S12       29.96F
WASECA         RAIN      64  63  94 S13G18    29.96F
ALBERT LEA     CLOUDY    68  68 100 S7        30.00F
$$
MNZ078>079-086>088-094>096-220000-
   Southeast Minnesota

CITY           SKY/WX    TMP DP  RH WIND       PRES   REMARKS
ROCHESTER      LGT RAIN  66  65  96 SW8       29.99F FOG
RED WING       LGT RAIN  70  63  78 S16G24    29.87F
STANTON        LGT RAIN  68  65  90 S17G25    29.86F
DODGE CENTER   RAIN      64  63  94 S6        29.99F
WINONA         LGT RAIN  70  66  88 SW6       29.97F
AUSTIN         RAIN      64  63  94 SW6       30.01S
PRESTON        LGT RAIN  66  64  93 SW6       30.01F
$$
ABBREVIATIONS USED IN REMARKS
   TC - TEMPERATURES IN CELSIUS
  WCI - WIND CHILL INDEX
   HX - HEAT INDEX
  VSB - VISIBILITY
$$




USA.gov is the U.S. government's official web portal to all federal, state and local government web resources and services.